Location: Buchloe
(48.0161°N, 10.7316°E)
Time: 08:22:23
(UTC+02:00)

ISS - Pass Details

Date: 20 May 2018
Orbit: 402 x 407 km, 51.6° (Epoch: 26 May)

Event Time Altitude Azimuth Distance (km) Brightness Sun altitude
Exits shadow 01:38:46 20° 292° (WNW) 987 -1.8 -21.8°
Maximum altitude 01:40:38 43° 355° (N) 582 -2.6 -21.8°
Drops below altitude 10° 01:43:46 10° 69° (ENE) 1,457 -0.7 -21.7°
Sets 01:45:55 0° 76° (ENE) 2,317 0.3 -21.7°
